TimeCDT,TemperatureF,Dew PointF,Humidity,Sea Level PressureIn,VisibilityMPH,Wind Direction,Wind SpeedMPH,Gust SpeedMPH,PrecipitationIn,Events,Conditions,WindDirDegrees,DateUTC
12:52 AM,60.8,37.4,42,29.85,10.0,SW,13.8,21.9,N/A,,Partly Cloudy,230,2012-09-25 05:52:00
1:52 AM,57.9,39.0,49,29.84,10.0,SW,11.5,-,N/A,,Partly Cloudy,230,2012-09-25 06:52:00
2:52 AM,55.9,39.9,55,29.84,10.0,SW,11.5,-,N/A,,Partly Cloudy,230,2012-09-25 07:52:00
3:52 AM,54.0,39.9,59,29.84,10.0,SW,9.2,-,N/A,,Partly Cloudy,230,2012-09-25 08:52:00
4:52 AM,53.1,41.0,64,29.82,10.0,Calm,Calm,-,N/A,,Clear,0,2012-09-25 09:52:00
5:52 AM,54.0,42.1,64,29.81,10.0,Calm,Calm,-,N/A,,Clear,0,2012-09-25 10:52:00
6:52 AM,53.1,42.1,66,29.84,10.0,SW,9.2,-,N/A,,Scattered Clouds,230,2012-09-25 11:52:00
7:52 AM,53.1,42.1,66,29.85,10.0,SW,15.0,20.7,N/A,,Scattered Clouds,220,2012-09-25 12:52:00
8:52 AM,57.0,44.1,62,29.85,10.0,WSW,9.2,-,N/A,,Scattered Clouds,240,2012-09-25 13:52:00
9:52 AM,62.1,46.0,56,29.85,10.0,WSW,13.8,-,N/A,,Scattered Clouds,240,2012-09-25 14:52:00
10:52 AM,66.9,48.0,51,29.84,10.0,SW,11.5,-,N/A,,Scattered Clouds,230,2012-09-25 15:52:00
11:52 AM,71.1,48.0,44,29.82,10.0,WSW,6.9,-,N/A,,Scattered Clouds,250,2012-09-25 16:52:00
12:52 PM,73.9,48.9,41,29.81,10.0,WSW,6.9,-,N/A,,Partly Cloudy,240,2012-09-25 17:52:00
1:52 PM,75.2,48.2,38,29.80,10.0,WSW,8.1,-,N/A,,Partly Cloudy,240,2012-09-25 18:52:00
2:52 PM,78.1,45.0,31,29.78,10.0,WSW,9.2,-,N/A,,Partly Cloudy,250,2012-09-25 19:52:00
3:52 PM,78.1,46.0,32,29.77,10.0,SW,13.8,-,N/A,,Scattered Clouds,230,2012-09-25 20:52:00
4:52 PM,79.0,44.1,29,29.78,10.0,WSW,10.4,-,N/A,,Scattered Clouds,250,2012-09-25 21:52:00
5:52 PM,64.9,55.0,70,29.81,10.0,North,13.8,18.4,N/A,,Scattered Clouds,360,2012-09-25 22:52:00
6:52 PM,60.1,55.0,83,29.83,10.0,North,16.1,-,N/A,,Scattered Clouds,10,2012-09-25 23:52:00
7:52 PM,59.0,54.0,83,29.86,10.0,North,10.4,-,N/A,,Partly Cloudy,10,2012-09-26 00:52:00
8:52 PM,57.2,53.6,88,29.85,10.0,NNE,10.4,-,N/A,,Partly Cloudy,20,2012-09-26 01:52:00
9:52 PM,57.9,54.0,87,29.86,10.0,NNE,6.9,-,N/A,,Clear,30,2012-09-26 02:52:00
10:52 PM,57.0,53.1,87,29.89,10.0,NNE,6.9,-,N/A,,Partly Cloudy,20,2012-09-26 03:52:00
11:52 PM,55.9,53.1,90,29.89,10.0,NNE,4.6,-,N/A,,Clear,30,2012-09-26 04:52:00